sat.trackr.live / text

‹ back to catalog

GONETS-M 4

NORAD 38736 · 2012-041D

PAYLOAD ACTIVE UNKNOWN

§ Identity

Operator
Country
CIS
Launch date
2012-07-28
Launch site
PLMSC
Launch vehicle
Mass (kg)
RCS (m²)
1.70

External: N2YO · Heavens-Above · Gunter

§ Orbital elements

Epoch: 2026-09-13T04:18:35.133120Z

Period
115.76 min
Inclination
82.4840°
Eccentricity
0.0024842
Mean motion
12.43906902 rev/d
Perigee alt
1,470.5 km
Apogee alt
1,509.6 km
Semi-major
7,868.2 km
B*
1.0305e-4
RAAN
15.8163°
Arg perigee
219.0122°
Mean anomaly
140.9167°
Rev number
63,389

§ Raw data

GONETS-M 41 38736U 12041D   26256.17957330  .00000024  00000+0  10305-3 0  99982 38736  82.4840  15.8163 0024842 219.0122 140.9167 12.43906902633899

JSON: /api/v1/satellites/38736 · /tle

For live sub-satellite position, see the globe view (requires WebGL).

§ Visibility from observer

Set your observer location to see the next 7 days of passes ≥ 10°. The values pass through the URL so the page stays shareable.

No JS? Fill the form by hand. The geolocation button needs JavaScript.